Location: Góry Miechowskie
(50.3599°N, 20.1803°E)
Time: 02:33:25
(UTC+00:00)

SR - Pass Details

Date: 20 September 2024
Orbit: 578 x 855 km, 66.7° (Epoch: 04 October)

Event Time Altitude Azimuth Distance (km) Brightness Sun altitude
Rises 17:34:52 0° 326° (NW) 2,893 ? -9.3°
Reaches altitude 10° 17:37:19 10° 337° (NNW) 2,021 ? -9.7°
Maximum altitude 17:41:21 30° 40° (NE) 1,186 ? -10.3°
Enters shadow 17:44:44 14° 95° (E) 1,856 ? -10.9°
